CW9098 Weather Reports


Display with metric or nautical units.
time (UTC)temp
F
wind
direction
speed
MPH
gust
MPH
rain 1hr
in
rain 24hr
in
rain mn
in
humidity
%
barometer
mb
20260906122624 59 27 3.0 7.0 0.00 0.01 0.01 86 1016.8
20260906122159 59 59 3.0 7.0 0.00 0.01 0.01 86 1016.7
20260906121623 59 49 1.0 6.0 0.00 0.01 0.01 87 1016.7
20260906121114 58 60 3.0 6.0 0.00 0.01 0.01 86 1016.6
20260906120624 58 36 3.0 6.0 0.00 0.01 0.01 86 1016.6
20260906120135 58 49 3.0 6.0 0.00 0.01 0.01 87 1016.6
20260906115630 58 63 3.0 6.0 0.00 0.01 0.01 87 1016.4
20260906115119 57 47 3.0 5.0 0.00 0.01 0.01 87 1016.4
20260906114653 57 71 1.0 4.0 0.00 0.01 0.01 87 1016.3
20260906114120 57 72 0.0 3.0 0.00 0.01 0.01 87 1016.3
20260906113655 56 66 0.0 3.0 0.00 0.01 0.01 87 1016.2
20260906113121 56 66 0.0 4.0 0.00 0.01 0.01 87 1016.2
20260906112616 56 70 0.0 0.0 0.00 0.01 0.01 87 1016.2
20260906112130 55 64 0.0 0.0 0.00 0.01 0.01 86 1016.1
20260906111618 55 52 0.0 0.0 0.00 0.01 0.01 86 1016.0
20260906111134 55 51 0.0 0.0 0.00 0.01 0.01 86 1016.0
20260906110622 55 47 0.0 0.0 0.00 0.01 0.01 86 1016.0
20260906110116 55 47 0.0 0.0 0.00 0.01 0.01 86 1016.0
20260906105633 55 46 0.0 0.0 0.00 0.01 0.01 86 1016.0
20260906105119 55 47 0.0 0.0 0.00 0.01 0.01 86 1015.8
20260906104633 55 43 0.0 0.0 0.00 0.01 0.01 86 1015.8
20260906104121 55 40 0.0 0.0 0.00 0.01 0.01 86 1015.7
20260906103635 55 41 0.0 0.0 0.00 0.01 0.01 87 1015.6
20260906103120 55 40 0.0 0.0 0.00 0.01 0.01 86 1015.6
20260906102635 54 31 0.0 0.0 0.00 0.01 0.01 86 1015.6
20260906102134 54 29 0.0 0.0 0.00 0.01 0.01 86 1015.6
20260906101628 54 27 0.0 0.0 0.00 0.01 0.01 86 1015.6
20260906101122 54 27 0.0 0.0 0.00 0.01 0.01 86 1015.5
20260906100616 54 27 0.0 0.0 0.01 0.01 0.01 86 1015.5
20260906100131 54 27 0.0 0.0 0.01 0.01 0.01 86 1015.6
20260906095627 54 27 0.0 0.0 0.01 0.01 0.01 86 1015.5
20260906095119 54 27 0.0 0.0 0.01 0.01 0.01 86 1015.5
20260906094655 54 27 0.0 0.0 0.01 0.01 0.01 86 1015.4
20260906094122 54 27 0.0 0.0 0.01 0.01 0.01 86 1015.4
20260906093616 54 27 0.0 0.0 0.01 0.01 0.01 86 1015.3
20260906093131 54 27 0.0 0.0 0.01 0.01 0.01 86 1015.3
20260906092621 54 27 0.0 0.0 0.01 0.01 0.01 86 1015.2
20260906092155 54 27 0.0 0.0 0.01 0.01 0.01 86 1015.1
20260906091621 54 27 0.0 0.0 0.01 0.01 0.01 86 1015.1
20260906091117 55 27 0.0 0.0 0.01 0.01 0.01 86 1015.0
20260906090632 55 27 0.0 0.0 0.00 0.00 0.00 86 1014.9
20260906090118 55 27 0.0 0.0 0.00 0.00 0.00 86 1015.0
20260906085634 55 27 0.0 0.0 0.00 0.00 0.00 86 1015.0
20260906085120 55 27 0.0 0.0 0.00 0.00 0.00 86 1014.9
20260906084656 55 27 0.0 0.0 0.00 0.00 0.00 86 1014.9
20260906084141 55 27 0.0 0.0 0.00 0.00 0.00 85 1015.0
20260906083627 55 27 0.0 0.0 0.00 0.00 0.00 86 1014.9
20260906083121 55 27 0.0 0.0 0.00 0.00 0.00 86 1014.9
20260906082638 56 27 0.0 0.0 0.00 0.00 0.00 86 1014.9
20260906082131 56 27 0.0 0.0 0.00 0.00 0.00 86 1014.9
20260906081625 56 27 0.0 0.0 0.00 0.00 0.00 86 1014.9
20260906081132 55 27 0.0 0.0 0.00 0.00 0.00 86 1014.8
20260906080637 55 27 0.0 0.0 0.00 0.00 0.00 86 1014.8
20260906080123 55 27 0.0 0.0 0.00 0.00 0.00 85 1014.7
20260906075619 55 27 0.0 0.0 0.00 0.00 0.00 85 1014.6
20260906075134 55 27 0.0 0.0 0.00 0.00 0.00 85 1014.7
20260906074620 55 27 0.0 0.0 0.00 0.00 0.00 85 1014.8
20260906074136 55 27 0.0 0.0 0.00 0.00 0.00 85 1014.8
20260906073622 55 27 0.0 0.0 0.00 0.00 0.00 85 1014.8
20260906073156 55 27 0.0 0.0 0.00 0.00 0.00 85 1014.8
20260906072622 56 27 0.0 0.0 0.00 0.00 0.00 85 1014.8
20260906072137 56 27 0.0 0.0 0.00 0.00 0.00 85 1014.8
20260906071623 56 27 0.0 0.0 0.00 0.00 0.00 85 1014.7
20260906071120 55 27 0.0 0.0 0.00 0.00 0.00 85 1014.6
20260906070634 55 27 0.0 0.0 0.00 0.00 0.00 85 1014.6
20260906070142 56 27 0.0 0.0 0.00 0.00 0.00 85 1014.5
20260906065635 56 27 0.0 0.0 0.00 0.00 0.00 85 1014.6
20260906065124 57 27 0.0 0.0 0.00 0.00 0.00 85 1014.6
20260906064638 57 27 0.0 0.0 0.00 0.00 0.00 85 1014.6
20260906064133 57 27 0.0 0.0 0.00 0.00 0.00 85 1014.6
20260906063628 56 27 0.0 0.0 0.00 0.00 0.00 85 1014.6
20260906063122 56 27 0.0 0.0 0.00 0.00 0.00 85 1014.6
20260906062658 56 27 0.0 0.0 0.00 0.00 0.00 85 1014.6
20260906062143 56 27 0.0 0.0 0.00 0.00 0.00 85 1014.6
20260906061656 56 27 0.0 0.0 0.00 0.00 0.00 85 1014.5
20260906061124 57 27 0.0 0.0 0.00 0.00 0.00 85 1014.6
20260906060619 57 27 0.0 0.0 0.00 0.00 0.00 85 1014.5
20260906060134 57 27 0.0 0.0 0.00 0.00 0.00 85 1014.5
20260906055624 57 27 0.0 0.0 0.00 0.00 0.00 85 1014.4
20260906055157 57 27 0.0 0.0 0.00 0.00 0.00 85 1014.6
20260906054622 57 27 0.0 0.0 0.00 0.00 0.00 85 1014.4
20260906054137 57 27 0.0 0.0 0.00 0.00 0.00 85 1014.5
20260906053621 57 27 0.0 0.0 0.00 0.00 0.00 85 1014.7
20260906053116 57 27 0.0 0.0 0.00 0.00 0.00 85 1014.5
20260906052633 57 27 0.0 0.0 0.00 0.00 0.00 85 1014.7
20260906052118 57 27 0.0 0.0 0.00 0.00 0.00 85 1014.8
20260906051627 57 27 0.0 0.0 0.00 0.00 0.00 85 1014.7
20260906051121 57 27 0.0 0.0 0.00 0.00 0.00 85 1014.7
20260906050614 57 27 0.0 0.0 0.00 0.00 0.00 84 1014.6
20260906050128 57 27 0.0 0.0 0.00 0.00 0.00 84 1014.6
20260906045624 57 27 0.0 0.0 0.00 0.00 0.00 84 1014.6
20260906045136 57 27 0.0 0.0 0.00 0.00 0.00 84 1014.6
20260906044629 57 27 0.0 0.0 0.00 0.00 0.00 84 1014.5
20260906044123 57 27 0.0 0.0 0.00 0.00 0.00 84 1014.6
20260906043637 57 27 0.0 0.0 0.00 0.00 0.00 84 1014.6
20260906043123 58 27 0.0 0.0 0.00 0.00 0.00 84 1014.7
20260906042619 58 27 0.0 0.0 0.00 0.00 0.00 84 1014.6
20260906042133 58 27 0.0 0.0 0.00 0.00 0.00 84 1014.6
20260906041622 58 27 0.0 0.0 0.00 0.00 0.00 84 1014.6
20260906041158 58 27 0.0 0.0 0.00 0.00 0.00 84 1014.5
20260906040623 58 27 0.0 0.0 0.00 0.00 0.00 84 1014.5
20260906040137 58 27 0.0 0.0 0.00 0.00 0.00 84 1014.5
20260906035625 58 27 0.0 0.0 0.00 0.00 0.00 84 1014.5
20260906035139 59 27 0.0 0.0 0.00 0.00 0.00 84 1014.5
20260906034625 59 27 0.0 0.0 0.00 0.00 0.00 84 1014.5
20260906034142 59 27 0.0 0.0 0.00 0.00 0.00 84 1014.5
20260906033635 59 27 0.0 0.0 0.00 0.00 0.00 84 1014.5
20260906033122 59 27 0.0 0.0 0.00 0.00 0.00 84 1014.6
20260906032636 59 27 0.0 0.0 0.00 0.00 0.00 84 1014.5
20260906032122 59 27 0.0 0.0 0.00 0.00 0.00 84 1014.4
20260906031617 59 27 0.0 0.0 0.00 0.00 0.00 84 1014.5
20260906031127 59 27 0.0 0.0 0.00 0.00 0.00 84 1014.4
20260906030642 60 27 0.0 0.0 0.00 0.00 0.00 84 1014.4
20260906030128 60 27 0.0 0.0 0.00 0.00 0.00 84 1014.3
20260906025622 60 27 0.0 0.0 0.00 0.00 0.00 83 1014.3
20260906025135 60 27 0.0 0.0 0.00 0.00 0.00 83 1014.1
20260906024628 60 27 0.0 0.0 0.00 0.00 0.00 83 1014.1
20260906024143 60 27 0.0 0.0 0.00 0.00 0.00 84 1014.1
20260906023636 60 27 0.0 0.0 0.00 0.00 0.00 84 1014.1
20260906023143 61 27 0.0 0.0 0.00 0.00 0.00 83 1014.2
20260906022638 60 27 0.0 0.0 0.00 0.00 0.00 83 1014.1
20260906022125 60 27 0.0 0.0 0.00 0.00 0.00 83 1014.2
20260906021638 60 27 0.0 0.0 0.00 0.00 0.00 83 1014.1
20260906021125 60 27 0.0 0.0 0.00 0.00 0.00 83 1014.0
20260906020639 61 27 0.0 0.0 0.00 0.00 0.00 83 1014.0
20260906020126 61 27 0.0 0.0 0.00 0.00 0.00 83 1013.9
20260906015620 61 27 0.0 0.0 0.00 0.00 0.00 83 1013.9
20260906015134 61 27 0.0 0.0 0.00 0.00 0.00 83 1013.8
20260906014622 61 27 0.0 0.0 0.00 0.00 0.00 83 1013.8
20260906014136 61 27 0.0 0.0 0.00 0.00 0.00 83 1013.7
20260906013622 62 27 0.0 0.0 0.00 0.00 0.00 83 1013.7
20260906013136 62 27 0.0 0.0 0.00 0.00 0.00 83 1013.7
20260906012625 62 27 0.0 0.0 0.00 0.00 0.00 83 1013.7
20260906012139 63 27 0.0 0.0 0.00 0.00 0.00 83 1013.7
20260906011626 63 27 0.0 0.0 0.00 0.00 0.00 83 1013.5
20260906011138 63 27 0.0 0.0 0.00 0.00 0.00 83 1013.4
20260906010623 64 27 0.0 0.0 0.00 0.00 0.00 82 1013.4
20260906010117 64 27 0.0 0.0 0.00 0.00 0.00 83 1013.2
20260906005633 64 27 0.0 0.0 0.00 0.00 0.00 82 1013.2
20260906005128 65 27 0.0 0.0 0.00 0.00 0.00 82 1013.1
20260906004623 65 27 0.0 0.0 0.00 0.00 0.00 82 1013.0
20260906004135 65 27 0.0 0.0 0.00 0.00 0.00 82 1013.1
20260906003627 65 27 0.0 0.0 0.00 0.00 0.00 82 1013.1
20260906003120 66 27 0.0 0.0 0.00 0.00 0.00 82 1013.0
20260906002636 67 27 0.0 0.0 0.00 0.00 0.00 82 1013.1
20260906002120 67 27 0.0 0.0 0.00 0.00 0.00 81 1013.0
20260906001633 68 27 0.0 0.0 0.00 0.00 0.00 82 1012.9
20260906001123 68 27 0.0 0.0 0.00 0.00 0.00 81 1012.9
20260906000639 68 27 0.0 0.0 0.00 0.00 0.00 81 1012.9
20260906000125 69 27 0.0 0.0 0.00 0.00 0.00 81 1012.8
20260905235640 69 27 0.0 0.0 0.00 0.00 0.00 81 1012.8
20260905235125 70 27 0.0 0.0 0.00 0.00 0.00 80 1012.8
20260905234620 70 27 0.0 0.0 0.00 0.00 0.00 80 1012.7
20260905234137 71 27 0.0 0.0 0.00 0.00 0.00 80 1012.7
20260905233626 71 27 0.0 0.0 0.00 0.00 0.00 80 1012.7
20260905233121 72 27 0.0 0.0 0.00 0.00 0.00 79 1012.6
20260905232658 72 27 0.0 0.0 0.00 0.00 0.00 78 1012.4
20260905232124 72 27 0.0 0.0 0.00 0.00 0.00 77 1012.4
20260905231700 73 27 0.0 0.0 0.00 0.00 0.00 76 1012.4
20260905231148 73 27 0.0 0.0 0.00 0.00 0.00 76 1012.3
20260905230621 73 27 0.0 0.0 0.00 0.00 0.00 74 1012.2
20260905230117 73 27 0.0 0.0 0.00 0.00 0.00 74 1012.3
20260905225629 74 27 0.0 0.0 0.00 0.00 0.00 75 1012.2
20260905225122 74 27 0.0 0.0 0.00 0.00 0.00 74 1012.2
20260905224617 74 27 0.0 0.0 0.00 0.00 0.00 73 1012.2
20260905224134 74 27 0.0 4.0 0.00 0.00 0.00 73 1012.2
20260905223628 75 27 0.0 4.0 0.00 0.00 0.00 71 1012.2
20260905223124 75 336 0.0 9.0 0.00 0.00 0.00 69 1012.2
20260905222620 75 343 3.0 9.0 0.00 0.00 0.00 69 1012.1
20260905222135 76 10 3.0 7.0 0.00 0.00 0.00 70 1012.0
20260905221628 76 21 1.0 10.0 0.00 0.00 0.00 70 1011.8
20260905221123 76 37 3.0 10.0 0.00 0.00 0.00 69 1011.8
20260905220636 77 22 1.0 11.0 0.00 0.00 0.00 69 1011.7
20260905220123 77 360 6.0 11.0 0.00 0.00 0.00 67 1011.7
20260905215621 77 10 8.0 13.0 0.00 0.00 0.00 66 1011.6
20260905215135 77 347 5.0 9.0 0.00 0.00 0.00 68 1011.6
20260905214625 77 16 5.0 10.0 0.00 0.00 0.00 69 1011.7
20260905214121 77 21 3.0 11.0 0.00 0.00 0.00 68 1011.7
20260905213634 77 10 5.0 16.0 0.00 0.00 0.00 68 1011.6
20260905213122 77 33 5.0 16.0 0.00 0.00 0.00 68 1011.7
20260905212637 76 10 8.0 12.0 0.00 0.00 0.00 69 1011.7
20260905212144 76 10 0.0 3.0 0.00 0.00 0.00 70 1011.6
20260905211638 76 5 1.0 4.0 0.00 0.00 0.00 73 1011.7
20260905211135 76 16 1.0 4.0 0.00 0.00 0.00 74 1011.7
20260905210620 76 46 0.0 5.0 0.00 0.00 0.00 74 1011.7
20260905210125 76 28 2.0 5.0 0.00 0.00 0.00 73 1011.6
20260905205621 77 29 1.0 6.0 0.00 0.00 0.00 73 1011.7
20260905205134 77 33 1.0 5.0 0.00 0.00 0.00 72 1011.7
20260905204642 78 49 3.0 9.0 0.00 0.00 0.00 70 1011.7
20260905204117 78 41 4.0 9.0 0.00 0.00 0.00 70 1011.7
20260905203624 77 46 2.0 4.0 0.00 0.00 0.00 73 1011.7
20260905203139 76 65 0.0 3.0 0.00 0.00 0.00 73 1011.7
20260905202626 76 31 0.0 4.0 0.00 0.00 0.00 75 1011.7
20260905202120 76 54 2.0 8.0 0.00 0.00 0.00 73 1011.9
20260905201634 76 26 3.0 10.0 0.00 0.00 0.00 73 1011.9
20260905201129 76 47 4.0 10.0 0.00 0.00 0.00 72 1011.9
20260905200623 77 66 3.0 9.0 0.00 0.00 0.00 72 1011.9
20260905200139 77 17 1.0 9.0 0.00 0.00 0.00 73 1011.9
20260905195627 76 16 4.0 9.0 0.00 0.00 0.00 72 1012.0
20260905195119 76 52 0.0 3.0 0.00 0.00 0.00 74 1011.9
20260905194634 76 52 0.0 4.0 0.00 0.00 0.00 74 1011.9
20260905194124 76 41 1.0 11.0 0.00 0.00 0.00 73 1011.9
20260905193638 77 58 2.0 11.0 0.00 0.00 0.00 73 1011.9
20260905193146 77 39 3.0 9.0 0.00 0.00 0.00 73 1011.9
20260905192618 76 43 1.0 6.0 0.00 0.00 0.00 73 1012.0
20260905192134 76 62 3.0 6.0 0.00 0.00 0.00 71 1012.1
20260905191622 77 40 0.0 6.0 0.00 0.00 0.00 72 1012.2
20260905191137 76 49 3.0 6.0 0.00 0.00 0.00 74 1012.2
20260905190624 76 65 1.0 5.0 0.00 0.00 0.00 75 1012.1
20260905190138 75 21 3.0 5.0 0.00 0.00 0.00 77 1012.1
20260905185626 75 43 3.0 8.0 0.00 0.00 0.00 76 1012.2
20260905185120 75 33 3.0 10.0 0.00 0.00 0.00 75 1012.3
20260905184634 76 41 4.0 14.0 0.00 0.00 0.00 74 1012.4
20260905184124 77 47 9.0 14.0 0.00 0.00 0.00 71 1012.4
20260905183636 78 350 6.0 10.0 0.00 0.00 0.00 74 1012.5
20260905183142 76 29 4.0 12.0 0.00 0.00 0.00 75 1012.5
20260905182631 76 72 5.0 9.0 0.00 0.00 0.00 76 1012.6
20260905182125 75 29 4.0 12.0 0.00 0.00 0.00 77 1012.6
20260905181616 75 49 3.0 12.0 0.00 0.00 0.00 74 1012.5
20260905181132 76 59 5.0 11.0 0.00 0.00 0.00 74 1012.6
20260905180645 76 61 5.0 11.0 0.00 0.00 0.00 75 1012.7
20260905180138 76 32 6.0 11.0 0.00 0.00 0.00 77 1012.8
20260905175626 76 10 5.0 10.0 0.00 0.00 0.00 78 1012.8
20260905175137 75 54 4.0 8.0 0.00 0.00 0.00 76 1012.8
20260905174625 75 34 4.0 8.0 0.00 0.00 0.00 78 1012.9
20260905174122 75 66 2.0 6.0 0.00 0.00 0.00 77 1012.8
20260905173637 75 69 3.0 9.0 0.00 0.00 0.00 77 1012.8
20260905173125 74 56 4.0 9.0 0.00 0.00 0.00 78 1013.0
20260905172621 74 35 4.0 8.0 0.00 0.00 0.00 78 1013.1
20260905172135 74 65 3.0 10.0 0.00 0.00 0.00 79 1013.1
20260905171623 73 10 6.0 10.0 0.00 0.00 0.00 78 1013.1
20260905171158 73 21 5.0 13.0 0.00 0.00 0.00 80 1013.1
20260905170624 73 10 9.0 13.0 0.00 0.00 0.00 79 1013.2
20260905170119 73 360 5.0 10.0 0.00 0.00 0.00 80 1013.2
20260905165634 73 22 2.0 10.0 0.00 0.00 0.00 79 1013.3
20260905165120 74 29 3.0 13.0 0.00 0.00 0.00 79 1013.3
20260905164635 74 20 10.0 13.0 0.00 0.00 0.00 80 1013.3
20260905164124 74 60 2.0 11.0 0.00 0.00 0.00 80 1013.2
20260905163619 73 360 7.0 11.0 0.00 0.00 0.00 81 1013.2
20260905163134 72 47 2.0 6.0 0.00 0.00 0.00 81 1013.3
20260905162623 71 45 0.0 2.0 0.00 0.00 0.00 81 1013.4
20260905162117 71 45 0.0 6.0 0.00 0.00 0.00 81 1013.6
20260905161628 71 30 2.0 8.0 0.00 0.00 0.00 81 1013.7
20260905161119 71 26 3.0 8.0 0.00 0.00 0.00 81 1013.8
20260905160628 71 40 2.0 8.0 0.00 0.00 0.00 81 1013.8
20260905160142 72 36 4.0 13.0 0.00 0.00 0.00 81 1013.9
20260905155630 72 22 4.0 13.0 0.00 0.00 0.00 81 1013.9
20260905155125 72 54 3.0 10.0 0.00 0.00 0.00 81 1013.9
20260905154659 72 41 6.0 10.0 0.00 0.00 0.00 81 1013.8
20260905154127 72 22 3.0 7.0 0.00 0.00 0.00 81 1013.8
20260905153620 72 52 3.0 6.0 0.00 0.00 0.00 81 1013.9
20260905153135 72 47 2.0 6.0 0.00 0.00 0.00 81 1014.1
20260905152620 71 33 2.0 8.0 0.00 0.00 0.00 81 1013.9
20260905152134 71 23 4.0 8.0 0.00 0.00 0.00 81 1013.9
20260905151621 72 28 3.0 11.0 0.00 0.00 0.00 81 1014.0
20260905151136 73 5 6.0 11.0 0.00 0.00 0.00 80 1013.9
20260905150622 74 29 1.0 4.0 0.00 0.00 0.00 80 1013.9
20260905150138 74 44 1.0 1.0 0.00 0.00 0.00 79 1013.8
20260905145627 74 40 0.0 0.0 0.00 0.00 0.00 79 1013.8
20260905145121 74 41 0.0 2.0 0.00 0.00 0.00 79 1013.9
20260905144636 74 41 0.0 2.0 0.00 0.00 0.00 79 1013.8
20260905144122 74 40 0.0 0.0 0.00 0.00 0.00 80 1013.8
20260905143634 73 40 0.0 0.0 0.00 0.00 0.00 80 1013.8
20260905143140 73 40 0.0 1.0 0.00 0.00 0.00 80 1013.7
20260905142629 73 41 0.0 2.0 0.00 0.00 0.00 81 1013.5
20260905142120 73 18 0.0 1.0 0.00 0.00 0.00 81 1013.4
20260905141635 72 18 0.0 2.0 0.00 0.00 0.00 81 1013.4
20260905141122 72 14 0.0 4.0 0.00 0.00 0.00 81 1013.4
20260905140637 72 27 0.0 4.0 0.00 0.00 0.00 81 1013.3
20260905140123 72 27 0.0 4.0 0.00 0.00 0.00 81 1013.4
20260905135635 72 22 0.0 5.0 0.00 0.00 0.00 81 1013.4
20260905135120 72 22 0.0 5.0 0.00 0.00 0.00 81 1013.3
20260905134654 72 36 1.0 5.0 0.00 0.00 0.00 81 1013.2
20260905134128 72 23 1.0 6.0 0.00 0.00 0.00 81 1013.3
20260905133641 72 16 4.0 6.0 0.00 0.00 0.00 81 1013.3
20260905133155 71 24 2.0 5.0 0.00 0.00 0.00 81 1013.4
20260905132641 71 26 0.0 5.0 0.00 0.00 0.00 81 1013.3
20260905132126 71 18 2.0 5.0 0.00 0.00 0.00 82 1013.3
20260905131622 71 19 1.0 3.0 0.00 0.00 0.00 82 1013.3
20260905131156 71 23 0.0 4.0 0.00 0.00 0.00 81 1013.2
20260905130622 71 27 0.0 8.0 0.00 0.00 0.00 82 1013.2
20260905130158 71 31 2.0 8.0 0.00 0.00 0.00 82 1013.2
20260905125625 70 24 4.0 8.0 0.00 0.00 0.00 82 1013.3
20260905125158 70 42 0.0 0.0 0.00 0.00 0.00 82 1013.3
20260905124625 70 58 0.0 0.0 0.00 0.00 0.00 82 1013.3
20260905124119 70 37 0.0 0.0 0.00 0.00 0.00 82 1013.5
20260905123628 69 37 0.0 0.0 0.00 0.00 0.00 82 1013.6
20260905123142 69 37 0.0 0.0 0.00 0.00 0.00 82 1013.4